Reflectivity
-20 -20 -20 -20 -20 -20 -20 -20 -20 -20 -20 -20 -20 -20 -20 -20 -20 -20 -20 -20 -20 -20 -20 -20 -20 -20 -20 -20 -20 -20 -20 -20 -20 -20 -20 -20 -20 -20 -20 -20 -20 -20 -20
-20 -20 -20 -20 -20 -20 -20 -20 -20 -20 -20 -20 -20 -20 -20 -20 -20 -20 -20 -20 -20 -20 -20 -20 -20 -20 -20 -20 -20 -20 -20 -20 -20 -20 -20 -20 -20 -20 -20 -20 -20 -20 -20
-20 -20 -20 -20 -20 -20 -20 -20 -20 -20 -20 -20 -20 -20 -20 -20 -20 -20 -20 -20 -20 -20 -20 -20 -20 -20 -20 -20 -20 -20 -20 -20 -20 -20 -20 -20 -20 -20 -20 -20 -20 -20 -20
-20 -20 -20 -20 -20 -20 -20 -20 -20 -20 -20 -20 -20 -20 -20 -20 -20 -20 -20 -20 -20 -20 -20 -20 -20 -20 -20 -20 -20 -20 -20 -20 -20 -20 -20 -20 -20 -20 -20 -20 -20 -20 -20
-20 -20 -20 -20 -20 -20 -20 -20 -20 -20 -20 -20 -20 -20 -20 -20 -20 -20 -20 -20 -20 -20 -20 -20 -20 -20 -20 -20 -20 -20 -20 -20 -20 -20 -20 -20 -20 -20 -20 -20 -20 -20 -20
-20 -20 -20 -20 -20 -20 -20 -20 -20 -20 -20 -20 -20 -20 -20 -20 -20 -20 -20 -20 -20 -20 -20 -20 -20 -20 -20 -20 -20 -20 -20 -20 -20 -20 -20 -20 -20 -20 -20 -20 -20 -20 -20
-20 -20 -20 -20 -20 -20 -20 -20 -20 -20 -20 -20 -20 -20 -20 -20 -20 -20 -20 -20 -20 -20 -20 -20 -20 -20 -20 -20 -20 -15 -20 -20 -20 -20 -17 -20 -20 5 -16 10 -20 -20 -20
-20 -20 -20 -20 -12 -20 -20 -20 -20 -20 -20 -20 -20 -20 -20 -20 -20 -20 -20 -20 -20 -20 -20 -20 -20 -20 -20 -20 -20 -17 14 -16 -20 -20 -20 -20 15 -20 19 -20 -20 -20 -20
-20 -20 -20 -20 -20 -20 -20 -20 -20 -20 -7 -20 -20 -20 -20 -20 -20 -20 -20 -20 -20 -20 -20 -20 -20 -20 -20 -20 -20 -20 27 -17 21 -20 -20 -20 -20 -20 -20 -20 -12 -20 -20
-20 -20 -20 -20 -20 -20 -20 -20 -20 -20 -20 -20 -20 -20 -20 -20 -20 -20 -20 -20 -20 -20 -20 -19 -20 -20 -20 -20 -20 -11 10 -17 -1 -12 -20 3 1 -13 -20 -20 -20 -20 -20
-20 -20 -20 -20 -20 -20 -20 -20 -20 -20 -20 -10 -20 -20 -20 -20 -20 -20 -20 -20 -20 -20 -20 -20 3 -20 -20 -20 -20 -10 12 6 13 16 -20 -20 -20 -20 -20 -20 -20 -20 -20
-20 -20 -20 -20 -20 -20 -20 -20 -20 -12 5 -3 4 -14 -20 -20 -20 -13 -20 -20 -20 -20 -20 -20 -20 -16 -20 -18 -18 -15 7 27 14 -7 -1 -20 -20 -20 -20 -20 -20 -20 -20
-20 -20 -20 -20 -20 -20 -20 -15 -2 8 -15 -3 -19 -20 -20 -20 -20 -20 -20 -20 -20 -20 -20 -20 -20 2 -11 -12 1 7 30 27 1 17 11 11 -20 -20 -20 -20 -20 -20 -20
-20 -20 -20 -20 -20 -20 -20 -20 -20 -20 -4 -20 -20 -20 -20 -20 -20 -20 -20 -20 -13 7 -19 -20 -3 -17 -20 -17 -9 -1 23 29 26 23 1 -10 -14 -20 -20 -20 -20 -20 -20
-20 -20 -20 -20 -20 -20 -20 -20 -20 -20 -20 -20 -20 -20 -18 -20 -20 -6 -7 29 -17 4 4 -19 0 -8 -10 -1 -6 13 15 27 33 17 15 -9 -10 -16 -20 -20 -20 -20 -20
-20 -20 -20 -20 -20 -20 -20 -20 -1 -7 -14 -1 -1 -20 -20 -20 3 12 12 11 7 19 17 38 37 7 20 19 25 26 34 21 23 6 -11 -12 -20 -20 -20 -20 -20 -20 -20
-20 -20 -20 -3 -20 -20 -20 -20 -20 7 1 5 -3 8 -13 -8 9 12 12 10 -16 -5 6 33 5 33 40 28 41 28 22 10 1 -20 -20 -20 -20 -20 -20 -20 -20 -20 -20
-20 1 -20 -20 -20 -20 -20 -20 -20 -20 -20 -17 -2 8 10 22 25 14 16 19 14 10 11 12 23 27 22 20 26 19 10 -3 -20 -20 -20 -20 -20 -20 -20 -20 -20 -20 -20
-20 -20 -20 -20 -19 -20 -20 -20 -20 -20 -20 -20 -20 4 -5 20 22 23 22 29 33 23 22 28 28 25 30 26 8 -4 11 3 -4 -5 -19 -20 -20 -20 -20 -20 -20 -20 -20
-19 -10 -14 -20 -20 -19 -20 -20 -20 -20 -8 5 -17 -8 -20 -20 2 26 38 30 37 31 29 28 -0 17 17 6 -17 -2 12 -10 -20 -20 -20 -20 -20 -20 -20 -20 -20 -20 -20
-20 -10 -20 -15 -1 6 1 -20 -19 -19 -20 2 5 -20 -9 -20 11 32 41 48 51 42 34 25 9 2 1 -20 -3 10 2 -15 -20 -20 -20 -20 -20 -20 -20 -20 -20 -20 -20
-13 -20 -15 4 -7 -6 3 4 4 4 10 -11 -13 -20 -5 2 -16 25 36 46 47 38 32 28 22 5 -4 18 3 20 -7 -4 -20 -20 -20 -20 -20 -20 -20 -20 -20 -20 -20
-20 -20 -18 6 3 -3 -4 -5 -2 -1 -8 -20 -17 -20 2 2 9 13 21 23 27 21 19 2 25 19 23 15 27 6 -9 -20 -20 -20 -20 -20 -20 -20 -20 -20 -20 -20 -20
-20 -20 -20 -18 -17 2 2 5 -7 -18 -18 -17 -19 2 -1 12 25 22 16 15 24 17 -17 -4 12 -8 -7 6 -1 -20 -20 -20 -20 -20 -20 -20 -20 -20 -20 -20 -20 -20 -20
-20 -20 -20 -19 -3 2 2 1 3 -1 -2 -8 -0 -8 -20 -14 12 22 22 21 16 1 13 16 13 11 19 9 -19 -20 -20 -20 -20 -20 -20 -20 -20 -20 -20 -20 -20 -20 -20
-20 -20 -20 -20 -20 -20 -20 -17 -15 -15 -20 -20 -18 -15 6 3 -4 7 -15 8 3 13 9 15 10 -18 -20 -20 -20 -20 -20 -20 -20 -20 -20 -20 -20 -20 -20 -20 -20 -20 -20
Wind_Speed
23 21 21 20 21 20 18 17 17 16 15 16 15 16 16 15 15 14 14 13 14 13 12 12 12 9 7 7 7 7 7 7 6 4 4 6 5 6 4 6 6 6 5
23 21 22 20 20 21 20 20 18 18 17 17 16 16 16 17 16 16 16 15 15 15 15 14 12 10 12 9 8 8 7 6 7 7 4 7 7 7 7 7 7 7 5
22 24 22 22 22 22 21 20 19 19 19 20 18 17 17 18 17 17 17 17 17 16 15 15 13 14 13 10 10 8 8 7 9 8 6 7 5 6 7 7 7 7 6
24 24 23 23 24 22 20 21 20 20 19 19 19 18 19 18 18 18 19 18 17 17 17 16 15 15 15 13 11 11 7 8 8 8 7 6 6 6 6 7 8 9 8
21 23 23 22 20 20 20 20 20 20 19 19 19 19 19 19 17 19 19 19 18 18 17 16 16 16 16 13 10 11 10 10 9 8 9 8 7 7 7 8 7 4 4
18 22 18 18 19 20 19 20 19 20 20 20 20 20 21 17 22 21 20 18 18 17 17 17 15 14 14 14 16 9 12 11 10 9 9 8 7 6 7 7 7 6 6
20 18 19 18 20 19 18 19 21 21 19 21 21 21 21 22 19 23 25 19 19 17 17 15 15 13 16 16 15 12 11 11 10 10 12 10 8 6 7 4 8 6 7
18 19 18 19 18 17 18 21 20 18 21 20 20 21 20 20 20 22 24 22 16 17 17 17 16 15 16 17 15 16 16 16 15 12 13 13 9 8 4 7 6 6 7
19 21 20 19 19 19 21 21 19 18 18 19 19 21 22 21 20 22 21 20 19 17 16 17 17 17 15 18 17 16 16 13 12 13 7 7 6 6 2 7 7 6 7
19 18 17 18 18 20 20 19 17 18 19 17 20 21 22 22 20 23 23 17 18 17 17 16 16 18 15 20 18 15 14 12 12 12 11 6 6 5 3 9 6 7 6
16 16 16 17 18 18 17 16 17 17 17 18 19 18 20 22 20 23 30 21 17 16 16 15 14 18 15 21 17 11 11 12 10 10 10 10 9 8 8 8 6 6 6
14 15 15 15 15 15 17 15 16 16 17 17 17 17 17 19 23 22 28 29 20 17 17 14 15 23 20 21 18 11 12 11 11 10 9 9 10 10 9 8 6 5 2
13 13 14 15 15 13 15 16 15 16 16 17 17 17 17 16 17 22 28 33 24 17 14 14 18 22 20 14 15 11 11 8 9 10 9 9 9 8 9 7 7 6 5
10 10 10 12 13 13 12 13 14 15 16 16 16 16 16 14 15 13 15 16 25 9 11 12 12 13 11 12 11 10 10 9 7 7 10 9 8 8 9 8 8 8 8
6 7 8 9 11 11 12 12 13 14 15 15 16 15 14 16 13 11 12 11 11 11 17 12 11 12 11 10 10 9 8 7 8 9 11 10 10 10 9 8 7 6 7
3 4 3 5 7 9 10 11 7 4 4 9 13 14 14 18 16 22 22 21 23 23 11 12 13 13 12 12 11 9 9 10 11 10 9 10 12 10 9 7 7 7 8
4 2 2 3 3 4 6 7 10 4 3 8 11 13 19 10 21 26 26 29 34 25 14 14 15 11 16 14 11 12 13 12 12 12 12 12 11 10 9 9 8 8 8
8 5 3 4 3 2 2 3 4 7 11 12 11 7 11 19 25 26 29 31 18 17 17 16 16 17 15 15 16 15 13 13 13 12 12 12 11 10 9 9 8 8 7
6 6 4 5 6 4 4 4 5 6 9 7 5 5 7 9 22 32 39 21 20 16 16 14 11 13 13 15 14 13 16 14 13 12 12 11 10 9 9 9 8 2 3
9 8 3 5 4 4 6 7 7 4 4 4 5 3 2 7 4 9 14 21 20 15 13 12 13 14 15 13 12 11 11 12 13 13 12 11 10 9 9 9 8 8 9
8 8 7 6 6 7 5 4 4 6 5 4 6 3 4 6 6 5 4 7 4 8 10 10 12 11 12 11 11 12 13 14 14 13 12 11 10 9 8 8 8 8 8
9 9 9 8 8 8 8 8 8 8 6 4 1 3 11 6 6 4 4 6 4 5 8 8 9 10 11 12 12 14 15 14 13 12 12 12 10 9 8 8 9 9 9
9 10 10 9 8 8 8 8 8 7 5 5 5 2 1 1 1 2 3 5 5 6 6 7 7 10 10 12 12 13 13 13 12 12 12 11 10 9 8 9 10 9 9
12 13 12 11 10 10 10 9 9 9 8 7 7 6 4 3 2 1 3 4 4 4 6 7 9 13 13 12 10 10 10 11 12 13 15 11 10 8 8 9 9 11 9
13 13 13 12 11 12 11 11 12 12 12 10 6 5 5 5 4 2 3 1 3 6 7 6 4 11 13 13 13 15 10 13 14 13 12 12 11 10 9 9 10 9 10
13 12 9 9 10 10 10 9 9 9 11 10 10 11 9 5 6 3 3 1 2 4 5 7 9 13 15 13 15 13 11 13 10 10 10 9 10 9 9 10 12 9 9
Wind_Direction
204 204 205 206 208 209 213 211 212 213 206 214 200 206 204 205 205 206 219 211 210 215 222 215 214 227 225 216 217 226 228 231 243 226 232 163 215 246 207 214 226 242 221
204 203 204 204 206 208 209 210 207 208 208 206 204 206 208 209 207 208 212 213 210 215 216 222 215 206 219 233 221 218 224 213 246 228 222 203 208 212 242 225 250 261 283
205 205 207 207 206 210 206 208 207 207 206 207 207 205 205 208 208 209 215 218 215 220 219 218 213 209 209 219 221 209 222 230 219 256 232 212 236 216 207 226 238 247 262
206 209 207 207 208 206 204 204 204 204 207 208 206 204 206 208 209 213 214 218 218 221 222 220 214 207 214 209 206 224 217 226 226 241 239 242 214 222 233 267 219 208 229
205 208 209 208 207 206 204 203 206 205 205 205 206 208 205 209 211 212 214 216 217 221 220 220 217 207 212 208 208 208 210 217 232 226 240 234 230 232 221 240 246 279 229
208 211 208 208 207 207 204 204 205 208 206 205 207 207 207 209 207 199 209 212 215 218 219 218 219 190 202 200 209 217 201 217 235 241 237 241 252 250 245 261 264 263 284
207 204 206 202 207 207 204 203 206 208 205 211 210 208 211 215 204 195 197 213 210 212 215 215 210 209 204 211 214 219 209 212 236 232 253 269 257 237 272 253 254 258 272
200 201 202 205 206 203 205 208 208 206 210 211 212 212 212 215 199 196 197 214 221 215 217 219 215 211 200 209 204 212 221 215 218 228 239 249 252 259 238 241 249 254 249
203 202 199 198 199 203 208 209 206 207 209 213 213 211 214 219 197 195 186 207 220 218 216 219 215 215 198 184 202 208 213 220 197 198 95 72 97 94 189 228 221 238 260
208 206 204 200 200 204 206 208 206 209 213 211 216 218 218 220 200 187 186 209 212 212 210 215 202 215 178 172 204 207 211 203 217 184 196 176 203 183 217 244 250 259 278
205 207 204 203 206 208 207 206 206 211 216 213 220 218 222 218 218 186 188 207 213 205 217 209 210 190 161 170 189 207 208 196 195 204 199 197 194 191 201 214 224 258 264
204 207 204 207 208 206 210 208 209 210 213 221 217 222 220 223 214 189 194 209 209 213 208 204 200 167 164 166 181 200 202 196 194 200 207 197 197 202 196 179 193 235 248
199 202 205 207 211 221 203 209 212 213 222 216 219 222 224 216 218 194 195 198 215 218 212 206 154 164 157 159 174 175 188 196 199 186 204 212 201 198 152 167 188 183 215
192 198 204 208 211 215 217 211 217 218 217 231 225 231 233 231 227 204 198 200 207 199 108 117 126 135 152 145 134 172 157 215 188 209 212 206 178 163 183 189 197 192 227
182 196 203 210 205 217 225 225 222 227 228 223 232 234 230 236 215 206 181 184 186 176 133 133 146 150 150 149 158 166 168 184 201 202 214 190 181 188 191 190 214 218 235
188 195 218 242 218 213 233 225 134 111 4 338 297 252 236 228 164 156 161 161 145 156 154 159 165 157 160 160 159 167 182 184 196 207 197 181 193 189 192 195 211 224 238
68 79 66 271 276 280 277 273 276 194 219 255 262 262 262 206 164 163 167 160 162 157 166 171 158 179 164 167 177 174 182 184 193 193 196 195 193 184 192 198 205 224 230
94 43 82 54 68 64 56 8 317 290 289 287 250 254 232 183 174 170 166 162 169 171 169 174 168 172 174 164 172 175 180 185 191 194 196 195 193 193 191 216 209 222 226
40 59 83 89 60 50 48 22 349 338 336 340 5 17 27 297 201 177 170 181 184 162 170 177 180 173 174 167 178 175 174 186 184 188 195 196 195 194 202 212 214 227 225
68 35 336 6 8 348 341 331 350 355 48 37 51 60 24 106 127 266 222 186 175 160 166 173 166 171 169 170 156 167 163 168 182 187 188 188 192 202 209 206 215 196 202
66 59 50 41 26 2 348 13 359 15 23 39 75 358 229 144 121 99 40 339 16 120 145 168 161 157 160 165 156 155 164 178 185 183 184 183 185 205 214 214 212 213 225
61 57 50 44 44 40 22 15 11 10 1 326 54 51 347 355 1 62 152 165 174 150 158 142 143 160 157 164 163 156 180 178 180 185 182 187 188 204 198 215 211 216 215
42 67 65 57 61 70 60 54 43 34 37 10 0 50 321 130 159 184 145 139 154 150 148 142 148 156 164 162 164 173 176 177 180 182 183 188 186 200 206 211 217 214 217
43 44 44 45 33 44 41 48 59 59 57 40 28 17 34 58 56 114 103 115 137 125 127 157 179 160 159 166 164 176 178 182 176 181 183 184 196 183 216 215 216 216 218
45 39 40 41 43 46 41 38 40 33 32 19 18 26 17 27 74 73 76 136 121 142 152 168 160 148 153 167 173 185 161 144 180 173 182 191 204 191 210 223 219 210 215
49 54 50 58 51 44 37 28 30 31 41 35 16 6 12 23 22 29 58 129 132 169 171 165 156 165 169 180 184 132 117 117 134 161 184 193 195 202 208 224 211 217 211